Time,TemperatureF,DewpointF,PressureIn,WindDirection,WindDirectionDegrees,WindSpeedMPH,WindSpeedGustMPH,Humidity,HourlyPrecipIn,Conditions,Clouds,dailyrainin,SoftwareType,DateUTC
2013-09-21 00:02:00,55.4,33.3,29.52,SSE,155,0.0,0.0,43,0.00,CLR,,0.00,WeatherDisplay:10.37,2013-09-21 07:02:00,
2013-09-21 00:07:00,55.4,33.3,29.52,SSE,160,0.0,0.0,43,0.00,CLR,,0.00,WeatherDisplay:10.37,2013-09-21 07:07:00,
2013-09-21 00:12:00,55.4,32.7,29.51,SSE,160,0.0,0.0,42,0.00,CLR,,0.00,WeatherDisplay:10.37,2013-09-21 07:12:00,
2013-09-21 00:17:00,55.3,33.2,29.52,SSE,160,0.0,0.0,43,0.00,CLR,,0.00,WeatherDisplay:10.37,2013-09-21 07:17:00,
2013-09-21 00:22:00,55.0,32.9,29.51,SSE,160,0.0,0.0,43,0.00,CLR,,0.00,WeatherDisplay:10.37,2013-09-21 07:22:00,
2013-09-21 00:27:00,54.8,33.3,29.50,SSE,158,0.0,0.0,44,0.00,CLR,,0.00,WeatherDisplay:10.37,2013-09-21 07:27:00,
2013-09-21 00:32:00,54.7,33.2,29.51,SSE,160,0.0,0.0,44,0.00,CLR,,0.00,WeatherDisplay:10.37,2013-09-21 07:32:00,
2013-09-21 00:37:00,54.4,33.5,29.53,West,263,0.0,0.0,45,0.00,CLR,,0.00,WeatherDisplay:10.37,2013-09-21 07:37:00,
2013-09-21 00:42:00,54.2,33.9,29.54,West,267,0.0,0.0,46,0.00,CLR,,0.00,WeatherDisplay:10.37,2013-09-21 07:42:00,
2013-09-21 00:47:00,54.1,34.3,29.53,West,270,0.0,0.0,47,0.00,CLR,,0.00,WeatherDisplay:10.37,2013-09-21 07:47:00,
2013-09-21 00:52:00,53.9,35.2,29.53,West,270,0.0,0.0,49,0.00,CLR,,0.00,WeatherDisplay:10.37,2013-09-21 07:52:00,
2013-09-21 00:57:00,53.5,35.8,29.54,West,270,0.0,0.0,51,0.00,CLR,,0.00,WeatherDisplay:10.37,2013-09-21 07:57:00,
2013-09-21 01:02:00,53.2,36.5,29.54,West,270,0.0,0.0,53,0.00,CLR,,0.00,WeatherDisplay:10.37,2013-09-21 08:02:00,
2013-09-21 01:07:00,53.1,36.9,29.53,West,268,0.0,0.0,54,0.00,CLR,,0.00,WeatherDisplay:10.37,2013-09-21 08:07:00,
2013-09-21 01:12:00,52.9,36.7,29.54,West,268,0.0,0.0,54,0.00,CLR,,0.00,WeatherDisplay:10.37,2013-09-21 08:12:00,
2013-09-21 01:17:00,52.8,37.1,29.54,SW,226,0.0,0.0,55,0.00,CLR,,0.00,WeatherDisplay:10.37,2013-09-21 08:17:00,
2013-09-21 01:22:00,52.5,36.3,29.55,SSE,164,0.0,0.0,54,0.00,CLR,,0.00,WeatherDisplay:10.37,2013-09-21 08:22:00,
2013-09-21 01:27:00,52.5,35.8,29.54,SSE,161,0.0,0.0,53,0.00,CLR,,0.00,WeatherDisplay:10.37,2013-09-21 08:27:00,
2013-09-21 01:32:00,52.5,35.8,29.54,SSW,209,0.0,0.0,53,0.00,CLR,,0.00,WeatherDisplay:10.37,2013-09-21 08:32:00,
2013-09-21 01:37:00,52.5,35.8,29.54,SSW,210,1.0,0.0,53,0.00,CLR,,0.00,WeatherDisplay:10.37,2013-09-21 08:37:00,
2013-09-21 01:42:00,52.5,35.8,29.54,SSE,148,0.0,0.0,53,0.00,CLR,,0.00,WeatherDisplay:10.37,2013-09-21 08:42:00,
2013-09-21 01:47:00,52.3,35.7,29.56,SSE,148,0.0,0.0,53,0.00,CLR,,0.00,WeatherDisplay:10.37,2013-09-21 08:47:00,
2013-09-21 01:52:00,52.2,36.0,29.56,SSE,148,0.0,0.0,54,0.00,CLR,,0.00,WeatherDisplay:10.37,2013-09-21 08:52:00,
2013-09-21 01:57:00,51.9,35.8,29.56,SSE,148,0.0,0.0,54,0.00,CLR,,0.00,WeatherDisplay:10.37,2013-09-21 08:57:00,
2013-09-21 02:02:00,51.7,35.6,29.56,SSE,148,0.0,0.0,54,0.00,CLR,,0.00,WeatherDisplay:10.37,2013-09-21 09:02:00,
2013-09-21 02:07:00,51.4,35.8,29.55,SSE,148,0.0,0.0,55,0.00,CLR,,0.00,WeatherDisplay:10.37,2013-09-21 09:07:00,
2013-09-21 02:12:00,51.3,36.1,29.55,SSE,148,0.0,0.0,56,0.00,CLR,,0.00,WeatherDisplay:10.37,2013-09-21 09:12:00,
2013-09-21 02:17:00,51.0,36.3,29.55,SSE,148,0.0,0.0,57,0.00,CLR,,0.00,WeatherDisplay:10.37,2013-09-21 09:17:00,
2013-09-21 02:22:00,50.5,36.7,29.55,SSE,148,0.0,0.0,59,0.00,CLR,,0.00,WeatherDisplay:10.37,2013-09-21 09:22:00,
2013-09-21 02:27:00,50.2,36.4,29.56,SSE,148,0.0,0.0,59,0.00,CLR,,0.00,WeatherDisplay:10.37,2013-09-21 09:27:00,
2013-09-21 02:32:00,49.9,36.6,29.55,SSE,148,0.0,0.0,60,0.00,CLR,,0.00,WeatherDisplay:10.37,2013-09-21 09:32:00,
2013-09-21 02:37:00,49.8,36.9,29.55,SSE,148,0.0,0.0,61,0.00,CLR,,0.00,WeatherDisplay:10.37,2013-09-21 09:37:00,
2013-09-21 02:42:00,49.5,37.0,29.56,SSE,155,0.0,0.0,62,0.00,CLR,,0.00,WeatherDisplay:10.37,2013-09-21 09:42:00,
2013-09-21 02:47:00,49.4,37.3,29.56,South,171,0.0,0.0,63,0.00,CLR,,0.00,WeatherDisplay:10.37,2013-09-21 09:47:00,
2013-09-21 02:52:00,49.1,37.0,29.56,South,171,0.0,0.0,63,0.00,CLR,,0.00,WeatherDisplay:10.37,2013-09-21 09:52:00,
2013-09-21 02:57:00,48.8,37.2,29.55,South,188,0.0,0.0,64,0.00,CLR,,0.00,WeatherDisplay:10.37,2013-09-21 09:57:00,
2013-09-21 03:02:00,48.8,36.8,29.56,South,184,0.0,0.0,63,0.00,CLR,,0.00,WeatherDisplay:10.37,2013-09-21 10:02:00,
2013-09-21 03:07:00,49.2,36.3,29.56,SSE,158,0.0,0.0,61,0.00,CLR,,0.00,WeatherDisplay:10.37,2013-09-21 10:07:00,
2013-09-21 03:12:00,49.8,36.0,29.55,SSE,160,0.0,0.0,59,0.00,CLR,,0.00,WeatherDisplay:10.37,2013-09-21 10:12:00,
2013-09-21 03:17:00,50.4,36.2,29.55,SSE,157,0.0,0.0,58,0.00,CLR,,0.00,WeatherDisplay:10.37,2013-09-21 10:17:00,
2013-09-21 03:22:00,50.5,36.3,29.56,SSE,162,0.0,0.0,58,0.00,CLR,,0.00,WeatherDisplay:10.37,2013-09-21 10:22:00,
2013-09-21 03:27:00,50.4,36.2,29.56,South,188,0.0,0.0,58,0.00,CLR,,0.00,WeatherDisplay:10.37,2013-09-21 10:27:00,
2013-09-21 03:32:00,50.1,36.3,29.56,South,189,0.0,0.0,59,0.00,CLR,,0.00,WeatherDisplay:10.37,2013-09-21 10:32:00,
2013-09-21 03:37:00,49.5,37.0,29.55,South,189,0.0,0.0,62,0.00,CLR,,0.00,WeatherDisplay:10.37,2013-09-21 10:37:00,
2013-09-21 03:42:00,48.8,37.6,29.56,SSW,193,0.0,0.0,65,0.00,CLR,,0.00,WeatherDisplay:10.37,2013-09-21 10:42:00,
2013-09-21 03:47:00,48.2,37.4,29.56,SSW,193,0.0,0.0,66,0.00,CLR,,0.00,WeatherDisplay:10.37,2013-09-21 10:47:00,
2013-09-21 03:52:00,47.7,37.3,29.57,SSW,196,0.0,0.0,67,0.00,CLR,,0.00,WeatherDisplay:10.37,2013-09-21 10:52:00,
2013-09-21 03:57:00,47.4,37.4,29.57,SSW,196,0.0,0.0,68,0.00,CLR,,0.00,WeatherDisplay:10.37,2013-09-21 10:57:00,
2013-09-21 04:02:00,47.1,37.1,29.59,SSW,196,0.0,0.0,68,0.00,CLR,,0.00,WeatherDisplay:10.37,2013-09-21 11:02:00,
2013-09-21 04:07:00,47.0,37.4,29.59,SSW,193,0.0,0.0,69,0.00,CLR,,0.00,WeatherDisplay:10.37,2013-09-21 11:07:00,
2013-09-21 04:12:00,46.8,37.2,29.59,SSW,193,0.0,0.0,69,0.00,CLR,,0.00,WeatherDisplay:10.37,2013-09-21 11:12:00,
2013-09-21 04:17:00,46.7,37.1,29.59,South,189,0.0,0.0,69,0.00,CLR,,0.00,WeatherDisplay:10.37,2013-09-21 11:17:00,
2013-09-21 04:22:00,46.7,37.4,29.59,SSE,167,0.0,0.0,70,0.00,CLR,,0.00,WeatherDisplay:10.37,2013-09-21 11:22:00,
2013-09-21 04:27:00,46.5,37.2,29.59,SSE,168,0.0,0.0,70,0.00,CLR,,0.00,WeatherDisplay:10.37,2013-09-21 11:27:00,
2013-09-21 04:32:00,46.2,37.3,29.59,SSE,168,0.0,0.0,71,0.00,CLR,,0.00,WeatherDisplay:10.37,2013-09-21 11:32:00,
2013-09-21 04:37:00,46.0,37.1,29.59,SSE,167,0.0,0.0,71,0.00,CLR,,0.00,WeatherDisplay:10.37,2013-09-21 11:37:00,
2013-09-21 04:42:00,46.0,37.1,29.59,South,179,0.0,0.0,71,0.00,CLR,,0.00,WeatherDisplay:10.37,2013-09-21 11:42:00,
2013-09-21 04:47:00,46.0,37.1,29.59,SSE,158,0.0,0.0,71,0.00,CLR,,0.00,WeatherDisplay:10.37,2013-09-21 11:47:00,
2013-09-21 04:52:00,46.0,37.1,29.59,SSE,154,0.0,0.0,71,0.00,CLR,,0.00,WeatherDisplay:10.37,2013-09-21 11:52:00,
2013-09-21 04:57:00,45.8,36.9,29.59,SSE,162,0.0,0.0,71,0.00,CLR,,0.00,WeatherDisplay:10.37,2013-09-21 11:57:00,
2013-09-21 05:02:00,46.0,37.1,29.59,SSE,148,0.0,0.0,71,0.00,CLR,,0.00,WeatherDisplay:10.37,2013-09-21 12:02:00,
2013-09-21 05:07:00,46.0,37.1,29.61,SSE,151,0.0,0.0,71,0.00,CLR,,0.00,WeatherDisplay:10.37,2013-09-21 12:07:00,
2013-09-21 05:12:00,46.1,37.2,29.60,SSE,155,0.0,0.0,71,0.00,CLR,,0.00,WeatherDisplay:10.37,2013-09-21 12:12:00,
2013-09-21 05:17:00,46.1,37.2,29.60,SSE,168,0.0,0.0,71,0.00,CLR,,0.00,WeatherDisplay:10.37,2013-09-21 12:17:00,
2013-09-21 05:22:00,46.1,37.2,29.60,South,188,0.0,0.0,71,0.00,CLR,,0.00,WeatherDisplay:10.37,2013-09-21 12:22:00,
2013-09-21 05:27:00,46.1,37.2,29.60,SSE,158,0.0,0.0,71,0.00,CLR,,0.00,WeatherDisplay:10.37,2013-09-21 12:27:00,
2013-09-21 05:32:00,46.0,37.1,29.60,SSE,158,0.0,0.0,71,0.00,CLR,,0.00,WeatherDisplay:10.37,2013-09-21 12:32:00,
2013-09-21 05:37:00,45.8,36.9,29.61,SSE,158,0.0,0.0,71,0.00,CLR,,0.00,WeatherDisplay:10.37,2013-09-21 12:37:00,
2013-09-21 05:42:00,45.7,37.2,29.61,SSE,157,0.0,0.0,72,0.00,CLR,,0.00,WeatherDisplay:10.37,2013-09-21 12:42:00,
2013-09-21 05:47:00,45.7,37.2,29.61,SSE,152,0.0,0.0,72,0.00,CLR,,0.00,WeatherDisplay:10.37,2013-09-21 12:47:00,
2013-09-21 05:52:00,45.5,37.0,29.60,SSE,155,0.0,0.0,72,0.00,CLR,,0.00,WeatherDisplay:10.37,2013-09-21 12:52:00,
2013-09-21 05:57:00,45.5,37.0,29.60,SSE,154,0.0,0.0,72,0.00,CLR,,0.00,WeatherDisplay:10.37,2013-09-21 12:57:00,
2013-09-21 06:02:00,45.4,36.9,29.63,SSE,154,0.0,0.0,72,0.00,CLR,,0.00,WeatherDisplay:10.37,2013-09-21 13:02:00,
2013-09-21 06:07:00,45.4,36.9,29.63,SSE,154,0.0,0.0,72,0.00,CLR,,0.00,WeatherDisplay:10.37,2013-09-21 13:07:00,
2013-09-21 06:12:00,45.4,36.9,29.63,SE,143,0.0,0.0,72,0.00,CLR,,0.00,WeatherDisplay:10.37,2013-09-21 13:12:00,
2013-09-21 06:17:00,45.4,36.9,29.62,SE,143,0.0,0.0,72,0.00,CLR,,0.00,WeatherDisplay:10.37,2013-09-21 13:17:00,
2013-09-21 06:22:00,45.4,36.5,29.63,SE,143,0.0,0.0,71,0.00,CLR,,0.00,WeatherDisplay:10.37,2013-09-21 13:22:00,
2013-09-21 06:27:00,45.5,36.6,29.62,SE,143,0.0,0.0,71,0.00,CLR,,0.00,WeatherDisplay:10.37,2013-09-21 13:27:00,
2013-09-21 06:32:00,45.5,36.6,29.62,SE,143,0.0,0.0,71,0.00,CLR,,0.00,WeatherDisplay:10.37,2013-09-21 13:32:00,
2013-09-21 06:37:00,45.4,36.5,29.63,SE,143,0.0,0.0,71,0.00,CLR,,0.00,WeatherDisplay:10.37,2013-09-21 13:37:00,
2013-09-21 06:42:00,45.4,36.5,29.63,SE,143,0.0,0.0,71,0.00,CLR,,0.00,WeatherDisplay:10.37,2013-09-21 13:42:00,
2013-09-21 06:48:00,45.4,36.5,29.63,SE,143,0.0,0.0,71,0.00,CLR,,0.00,WeatherDisplay:10.37,2013-09-21 13:48:00,
2013-09-21 06:53:00,45.2,36.4,29.64,SE,143,0.0,0.0,71,0.00,CLR,,0.00,WeatherDisplay:10.37,2013-09-21 13:53:00,
2013-09-21 06:58:00,45.2,36.4,29.64,SSE,147,0.0,0.0,71,0.00,CLR,,0.00,WeatherDisplay:10.37,2013-09-21 13:58:00,
2013-09-21 07:03:00,44.9,36.1,29.66,SSE,147,0.0,0.0,71,0.00,CLR,,0.00,WeatherDisplay:10.37,2013-09-21 14:03:00,
2013-09-21 07:08:00,44.9,36.4,29.67,SSE,147,0.0,0.0,72,0.00,CLR,,0.00,WeatherDisplay:10.37,2013-09-21 14:08:00,
2013-09-21 07:13:00,44.9,36.1,29.67,SSE,147,0.0,0.0,71,0.00,CLR,,0.00,WeatherDisplay:10.37,2013-09-21 14:13:00,
2013-09-21 07:18:00,44.9,36.1,29.67,SSE,147,0.0,0.0,71,0.00,CLR,,0.00,WeatherDisplay:10.37,2013-09-21 14:18:00,
2013-09-21 07:23:00,44.9,36.1,29.67,SSE,147,0.0,0.0,71,0.00,CLR,,0.00,WeatherDisplay:10.37,2013-09-21 14:23:00,
2013-09-21 07:28:00,44.9,35.7,29.68,SSE,147,0.0,0.0,70,0.00,CLR,,0.00,WeatherDisplay:10.37,2013-09-21 14:28:00,
2013-09-21 07:33:00,44.8,36.0,29.68,SSE,147,0.0,0.0,71,0.00,CLR,,0.00,WeatherDisplay:10.37,2013-09-21 14:33:00,
2013-09-21 07:38:00,44.8,36.0,29.68,SSE,147,0.0,0.0,71,0.00,CLR,,0.00,WeatherDisplay:10.37,2013-09-21 14:38:00,
2013-09-21 07:43:00,44.8,36.0,29.68,SSE,147,0.0,0.0,71,0.00,CLR,,0.00,WeatherDisplay:10.37,2013-09-21 14:43:00,
2013-09-21 07:48:00,44.9,36.1,29.68,SSE,147,0.0,0.0,71,0.00,CLR,,0.00,WeatherDisplay:10.37,2013-09-21 14:48:00,
2013-09-21 07:53:00,45.1,36.3,29.68,SSE,147,0.0,0.0,71,0.00,CLR,,0.00,WeatherDisplay:10.37,2013-09-21 14:53:00,
2013-09-21 07:58:00,45.5,36.6,29.68,SSE,147,0.0,0.0,71,0.00,CLR,,0.00,WeatherDisplay:10.37,2013-09-21 14:58:00,
2013-09-21 08:03:00,45.7,36.5,29.68,SSE,147,0.0,0.0,70,0.00,CLR,,0.00,WeatherDisplay:10.37,2013-09-21 15:03:00,
2013-09-21 08:08:00,45.8,36.2,29.68,SSE,147,0.0,0.0,69,0.00,CLR,,0.00,WeatherDisplay:10.37,2013-09-21 15:08:00,
2013-09-21 08:13:00,46.1,36.5,29.68,SSE,147,0.0,0.0,69,0.00,CLR,,0.00,WeatherDisplay:10.37,2013-09-21 15:13:00,
2013-09-21 08:18:00,46.4,36.8,29.68,SSE,147,0.0,0.0,69,0.00,CLR,,0.00,WeatherDisplay:10.37,2013-09-21 15:18:00,
2013-09-21 08:23:00,46.8,37.2,29.67,SSE,147,0.0,0.0,69,0.00,CLR,,0.00,WeatherDisplay:10.37,2013-09-21 15:23:00,
2013-09-21 08:28:00,47.1,37.1,29.67,SSE,147,0.0,0.0,68,0.00,CLR,,0.00,WeatherDisplay:10.37,2013-09-21 15:28:00,
2013-09-21 08:33:00,47.4,37.0,29.67,SSE,147,0.0,0.0,67,0.00,CLR,,0.00,WeatherDisplay:10.37,2013-09-21 15:33:00,
2013-09-21 08:38:00,47.9,37.1,29.67,SSE,147,0.0,0.0,66,0.00,CLR,,0.00,WeatherDisplay:10.37,2013-09-21 15:38:00,
2013-09-21 08:43:00,48.3,37.1,29.67,SSE,147,0.0,0.0,65,0.00,CLR,,0.00,WeatherDisplay:10.37,2013-09-21 15:43:00,
2013-09-21 08:48:00,48.9,37.6,29.66,SSE,148,0.0,0.0,65,0.00,CLR,,0.00,WeatherDisplay:10.37,2013-09-21 15:48:00,
2013-09-21 08:53:00,49.5,37.8,29.66,SSE,147,0.0,0.0,64,0.00,CLR,,0.00,WeatherDisplay:10.37,2013-09-21 15:53:00,
2013-09-21 08:58:00,50.1,38.0,29.66,SSE,147,0.0,0.0,63,0.00,CLR,,0.00,WeatherDisplay:10.37,2013-09-21 15:58:00,
2013-09-21 09:03:00,50.5,37.5,29.67,SSE,148,0.0,0.0,61,0.00,CLR,,0.00,WeatherDisplay:10.37,2013-09-21 16:03:00,
2013-09-21 09:08:00,51.0,38.0,29.66,SSE,147,0.0,0.0,61,0.00,CLR,,0.00,WeatherDisplay:10.37,2013-09-21 16:08:00,
2013-09-21 09:13:00,51.6,38.2,29.66,SSE,148,0.0,0.0,60,0.00,CLR,,0.00,WeatherDisplay:10.37,2013-09-21 16:13:00,
2013-09-21 09:18:00,52.2,37.9,29.66,SSE,148,0.0,0.0,58,0.00,CLR,,0.00,WeatherDisplay:10.37,2013-09-21 16:18:00,
2013-09-21 09:23:00,52.8,38.0,29.65,SSE,147,0.0,0.0,57,0.00,CLR,,0.00,WeatherDisplay:10.37,2013-09-21 16:23:00,
2013-09-21 09:28:00,53.3,38.4,29.64,SSE,147,0.0,0.0,57,0.00,CLR,,0.00,WeatherDisplay:10.37,2013-09-21 16:28:00,
2013-09-21 09:33:00,53.6,38.3,29.64,SSE,148,0.0,0.0,56,0.00,CLR,,0.00,WeatherDisplay:10.37,2013-09-21 16:33:00,
2013-09-21 09:38:00,53.9,38.6,29.64,SSE,147,0.0,0.0,56,0.00,CLR,,0.00,WeatherDisplay:10.37,2013-09-21 16:38:00,
2013-09-21 09:43:00,54.2,38.4,29.64,SSE,148,0.0,0.0,55,0.00,CLR,,0.00,WeatherDisplay:10.37,2013-09-21 16:43:00,
2013-09-21 09:48:00,55.0,39.6,29.63,SSE,148,0.0,0.0,56,0.00,CLR,,0.00,WeatherDisplay:10.37,2013-09-21 16:48:00,
2013-09-21 09:53:00,55.6,37.7,29.63,SSE,148,0.0,0.0,51,0.00,CLR,,0.00,WeatherDisplay:10.37,2013-09-21 16:53:00,
2013-09-21 09:58:00,56.0,38.6,29.63,SSE,148,0.0,0.0,52,0.00,CLR,,0.00,WeatherDisplay:10.37,2013-09-21 16:58:00,
2013-09-21 10:03:00,56.9,39.4,29.63,SSE,148,0.0,0.0,52,0.00,CLR,,0.00,WeatherDisplay:10.37,2013-09-21 17:03:00,
2013-09-21 10:08:00,57.0,38.0,29.63,SSE,148,0.0,0.0,49,0.00,CLR,,0.00,WeatherDisplay:10.37,2013-09-21 17:08:00,
2013-09-21 10:13:00,57.2,38.7,29.63,SSE,150,0.0,0.0,50,0.00,CLR,,0.00,WeatherDisplay:10.37,2013-09-21 17:13:00,
2013-09-21 10:18:00,56.9,38.4,29.62,SW,227,0.0,0.0,50,0.00,CLR,,0.00,WeatherDisplay:10.37,2013-09-21 17:18:00,
2013-09-21 10:23:00,56.5,37.0,29.62,SW,227,0.0,0.0,48,0.00,CLR,,0.00,WeatherDisplay:10.37,2013-09-21 17:23:00,
2013-09-21 10:28:00,56.3,37.9,29.62,WSW,241,0.0,0.0,50,0.00,CLR,,0.00,WeatherDisplay:10.37,2013-09-21 17:28:00,
2013-09-21 10:33:00,56.2,37.8,29.62,WSW,248,0.0,0.0,50,0.00,CLR,,0.00,WeatherDisplay:10.37,2013-09-21 17:33:00,
2013-09-21 10:38:00,56.0,38.1,29.62,WSW,250,0.0,0.0,51,0.00,CLR,,0.00,WeatherDisplay:10.37,2013-09-21 17:38:00,
2013-09-21 10:43:00,56.0,37.6,29.62,WSW,250,0.0,0.0,50,0.00,CLR,,0.00,WeatherDisplay:10.37,2013-09-21 17:43:00,
2013-09-21 10:48:00,56.0,37.6,29.62,WSW,250,0.0,0.0,50,0.00,CLR,,0.00,WeatherDisplay:10.37,2013-09-21 17:48:00,
2013-09-21 10:53:00,56.2,37.8,29.62,WSW,250,0.0,0.0,50,0.00,CLR,,0.00,WeatherDisplay:10.37,2013-09-21 17:53:00,
2013-09-21 10:58:00,56.5,38.1,29.62,WSW,250,0.0,0.0,50,0.00,CLR,,0.00,WeatherDisplay:10.37,2013-09-21 17:58:00,
2013-09-21 11:03:00,56.6,36.6,29.61,WSW,250,0.0,0.0,47,0.00,CLR,,0.00,WeatherDisplay:10.37,2013-09-21 18:03:00,
2013-09-21 11:08:00,56.7,36.7,29.61,WSW,250,0.0,0.0,47,0.00,CLR,,0.00,WeatherDisplay:10.37,2013-09-21 18:08:00,
2013-09-21 11:13:00,57.0,36.4,29.61,WSW,250,0.0,0.0,46,0.00,CLR,,0.00,WeatherDisplay:10.37,2013-09-21 18:13:00,
2013-09-21 11:18:00,57.3,37.2,29.60,WSW,248,0.0,0.0,47,0.00,CLR,,0.00,WeatherDisplay:10.37,2013-09-21 18:18:00,
2013-09-21 11:23:00,57.6,37.0,29.60,WSW,250,0.0,0.0,46,0.00,CLR,,0.00,WeatherDisplay:10.37,2013-09-21 18:23:00,
2013-09-21 11:28:00,58.4,36.6,29.60,WSW,250,0.0,0.0,44,0.00,CLR,,0.00,WeatherDisplay:10.37,2013-09-21 18:28:00,
2013-09-21 11:33:00,59.3,36.8,29.59,WSW,250,0.0,0.0,43,0.00,CLR,,0.00,WeatherDisplay:10.37,2013-09-21 18:33:00,
2013-09-21 11:38:00,59.8,36.6,29.58,WSW,250,0.0,0.0,42,0.00,CLR,,0.00,WeatherDisplay:10.37,2013-09-21 18:38:00,
2013-09-21 11:43:00,60.1,37.5,29.58,WSW,250,0.0,0.0,43,0.00,CLR,,0.00,WeatherDisplay:10.37,2013-09-21 18:43:00,
2013-09-21 11:48:00,59.8,37.2,29.58,WSW,250,0.0,0.0,43,0.00,CLR,,0.00,WeatherDisplay:10.37,2013-09-21 18:48:00,
2013-09-21 11:53:00,60.2,38.2,29.58,WSW,250,0.0,0.0,44,0.00,CLR,,0.00,WeatherDisplay:10.37,2013-09-21 18:53:00,
2013-09-21 11:58:00,60.2,38.8,29.58,WSW,256,0.0,0.0,45,0.00,CLR,,0.00,WeatherDisplay:10.37,2013-09-21 18:58:00,
2013-09-21 12:03:00,60.4,38.4,29.59,West,260,0.0,0.0,44,0.00,CLR,,0.00,WeatherDisplay:10.37,2013-09-21 19:03:00,
2013-09-21 12:08:00,60.2,35.8,29.59,West,261,0.0,0.0,40,0.00,CLR,,0.00,WeatherDisplay:10.37,2013-09-21 19:08:00,
2013-09-21 12:13:00,59.8,36.6,29.59,West,260,0.0,0.0,42,0.00,CLR,,0.00,WeatherDisplay:10.37,2013-09-21 19:13:00,
2013-09-21 12:18:00,59.9,35.5,29.59,West,260,0.0,0.0,40,0.00,CLR,,0.00,WeatherDisplay:10.37,2013-09-21 19:18:00,
2013-09-21 12:23:00,60.2,38.2,29.59,West,263,0.0,0.0,44,0.00,CLR,,0.00,WeatherDisplay:10.37,2013-09-21 19:23:00,
2013-09-21 12:28:00,59.8,39.5,29.59,West,264,0.0,0.0,47,0.00,CLR,,0.00,WeatherDisplay:10.37,2013-09-21 19:28:00,
2013-09-21 12:33:00,59.8,38.4,29.58,West,264,0.0,0.0,45,0.00,CLR,,0.00,WeatherDisplay:10.37,2013-09-21 19:33:00,
2013-09-21 12:38:00,59.9,36.1,29.58,West,264,0.0,0.0,41,0.00,CLR,,0.00,WeatherDisplay:10.37,2013-09-21 19:38:00,
2013-09-21 12:43:00,60.7,35.6,29.57,WSW,258,0.0,0.0,39,0.00,CLR,,0.00,WeatherDisplay:10.37,2013-09-21 19:43:00,
2013-09-21 12:48:00,61.3,36.1,29.57,West,260,0.0,0.0,39,0.00,CLR,,0.00,WeatherDisplay:10.37,2013-09-21 19:48:00,
2013-09-21 12:53:00,61.3,36.1,29.56,WNW,288,0.0,0.0,39,0.00,CLR,,0.00,WeatherDisplay:10.37,2013-09-21 19:53:00,
2013-09-21 12:58:00,61.5,35.6,29.57,WNW,287,1.1,0.0,38,0.00,CLR,,0.00,WeatherDisplay:10.37,2013-09-21 19:58:00,
2013-09-21 13:03:00,62.1,34.1,29.56,WNW,287,0.0,0.0,35,0.00,CLR,,0.00,WeatherDisplay:10.37,2013-09-21 20:03:00,
2013-09-21 13:08:00,62.7,36.0,29.56,WNW,287,0.0,0.0,37,0.00,CLR,,0.00,WeatherDisplay:10.37,2013-09-21 20:08:00,
2013-09-21 13:13:00,62.9,34.1,29.56,West,260,0.0,0.0,34,0.00,CLR,,0.00,WeatherDisplay:10.37,2013-09-21 20:13:00,
2013-09-21 13:18:00,62.7,36.7,29.56,West,268,0.0,0.0,38,0.00,CLR,,0.00,WeatherDisplay:10.37,2013-09-21 20:18:00,
2013-09-21 13:23:00,62.1,34.8,29.56,SSW,200,0.0,0.0,36,0.00,CLR,,0.00,WeatherDisplay:10.37,2013-09-21 20:23:00,
2013-09-21 13:28:00,61.6,37.0,29.56,West,264,0.0,0.0,40,0.00,CLR,,0.00,WeatherDisplay:10.37,2013-09-21 20:28:00,
2013-09-21 13:33:00,61.6,35.7,29.56,SSE,161,1.0,1.0,38,0.00,CLR,,0.00,WeatherDisplay:10.37,2013-09-21 20:33:00,
2013-09-21 13:38:00,61.5,36.3,29.56,SSW,198,0.0,0.0,39,0.00,CLR,,0.00,WeatherDisplay:10.37,2013-09-21 20:38:00,
2013-09-21 13:43:00,61.5,35.6,29.56,South,191,0.0,0.0,38,0.00,CLR,,0.00,WeatherDisplay:10.37,2013-09-21 20:43:00,
2013-09-21 13:48:00,61.5,36.3,29.56,WSW,248,0.0,0.0,39,0.00,CLR,,0.00,WeatherDisplay:10.37,2013-09-21 20:48:00,
2013-09-21 13:53:00,61.5,35.6,29.56,SSW,213,0.0,0.0,38,0.00,CLR,,0.00,WeatherDisplay:10.37,2013-09-21 20:53:00,
2013-09-21 13:58:00,61.5,36.3,29.56,SSW,213,0.0,0.0,39,0.00,CLR,,0.00,WeatherDisplay:10.37,2013-09-21 20:58:00,
2013-09-21 14:03:00,61.5,38.2,29.56,West,274,1.1,0.0,42,0.00,CLR,,0.00,WeatherDisplay:10.37,2013-09-21 21:03:00,
2013-09-21 14:08:00,61.5,36.9,29.56,West,260,0.0,0.0,40,0.00,CLR,,0.00,WeatherDisplay:10.37,2013-09-21 21:08:00,
2013-09-21 14:13:00,61.5,35.6,29.57,SSE,151,0.0,0.0,38,0.00,CLR,,0.00,WeatherDisplay:10.37,2013-09-21 21:13:00,
2013-09-21 14:18:00,61.5,36.3,29.57,South,175,0.0,0.0,39,0.00,CLR,,0.00,WeatherDisplay:10.37,2013-09-21 21:18:00,
2013-09-21 14:23:00,61.8,35.9,29.57,SSW,199,0.0,0.0,38,0.00,CLR,,0.00,WeatherDisplay:10.37,2013-09-21 21:23:00,
2013-09-21 14:28:00,61.5,35.6,29.58,SE,143,0.0,0.0,38,0.00,CLR,,0.00,WeatherDisplay:10.37,2013-09-21 21:28:00,
2013-09-21 14:33:00,60.5,37.9,29.58,SE,136,0.0,0.0,43,0.00,CLR,,0.00,WeatherDisplay:10.37,2013-09-21 21:33:00,
2013-09-21 14:38:00,59.2,38.4,29.58,South,186,5.0,5.0,46,0.00,CLR,,0.00,WeatherDisplay:10.37,2013-09-21 21:38:00,
2013-09-21 14:43:00,58.4,38.8,29.59,SE,143,11.5,11.5,48,0.00,CLR,,0.00,WeatherDisplay:10.37,2013-09-21 21:43:00,
2013-09-21 14:48:00,58.3,39.2,29.59,SSE,167,11.5,11.5,49,0.00,CLR,,0.00,WeatherDisplay:10.37,2013-09-21 21:48:00,
2013-09-21 14:53:00,58.1,39.5,29.59,SSE,155,2.0,0.0,50,0.00,CLR,,0.00,WeatherDisplay:10.37,2013-09-21 21:53:00,
2013-09-21 14:58:00,57.8,38.8,29.59,SE,138,4.6,4.6,49,0.00,CLR,,0.00,WeatherDisplay:10.37,2013-09-21 21:58:00,
2013-09-21 15:03:00,57.6,39.1,29.60,SE,128,1.1,0.0,50,0.00,CLR,,0.00,WeatherDisplay:10.37,2013-09-21 22:03:00,
2013-09-21 15:08:00,57.3,39.3,29.61,South,186,0.0,0.0,51,0.00,CLR,,0.00,WeatherDisplay:10.37,2013-09-21 22:08:00,
2013-09-21 15:13:00,57.3,38.8,29.61,SE,134,1.1,1.1,50,0.00,CLR,,0.00,WeatherDisplay:10.37,2013-09-21 22:13:00,
2013-09-21 15:18:00,57.5,39.5,29.61,SE,136,0.0,0.0,51,0.00,CLR,,0.00,WeatherDisplay:10.37,2013-09-21 22:18:00,
2013-09-21 15:23:00,57.5,39.5,29.61,SSE,155,0.0,0.0,51,0.00,CLR,,0.00,WeatherDisplay:10.37,2013-09-21 22:23:00,
2013-09-21 15:28:00,57.8,39.3,29.61,South,171,0.0,0.0,50,0.00,CLR,,0.00,WeatherDisplay:10.37,2013-09-21 22:28:00,
2013-09-21 15:33:00,58.1,38.5,29.61,SE,136,0.0,0.0,48,0.00,CLR,,0.00,WeatherDisplay:10.37,2013-09-21 22:33:00,
2013-09-21 15:38:00,58.3,38.7,29.61,SSE,160,0.0,0.0,48,0.00,CLR,,0.00,WeatherDisplay:10.37,2013-09-21 22:38:00,
2013-09-21 15:43:00,58.6,39.0,29.61,SW,234,1.1,0.0,48,0.00,CLR,,0.00,WeatherDisplay:10.37,2013-09-21 22:43:00,
2013-09-21 15:48:00,59.2,39.5,29.61,SSE,148,1.1,0.0,48,0.00,CLR,,0.00,WeatherDisplay:10.37,2013-09-21 22:48:00,
2013-09-21 15:53:00,59.0,38.8,29.61,SE,145,1.1,0.0,47,0.00,CLR,,0.00,WeatherDisplay:10.37,2013-09-21 22:53:00,
2013-09-21 15:58:00,59.2,39.0,29.61,SSE,158,0.0,0.0,47,0.00,CLR,,0.00,WeatherDisplay:10.37,2013-09-21 22:58:00,
2013-09-21 16:03:00,59.2,39.0,29.62,SSE,150,0.0,0.0,47,0.00,CLR,,0.00,WeatherDisplay:10.37,2013-09-21 23:03:00,
2013-09-21 16:08:00,59.0,38.8,29.62,WSW,254,0.0,0.0,47,0.00,CLR,,0.00,WeatherDisplay:10.37,2013-09-21 23:08:00,
2013-09-21 16:13:00,58.9,38.7,29.62,WSW,241,0.0,0.0,47,0.00,CLR,,0.00,WeatherDisplay:10.37,2013-09-21 23:13:00,
2013-09-21 16:18:00,59.0,39.3,29.62,SSW,203,0.0,0.0,48,0.00,CLR,,0.00,WeatherDisplay:10.37,2013-09-21 23:18:00,
2013-09-21 16:23:00,59.2,39.0,29.62,SSW,192,0.0,0.0,47,0.00,CLR,,0.00,WeatherDisplay:10.37,2013-09-21 23:23:00,
2013-09-21 16:28:00,59.3,39.1,29.62,SSW,208,0.0,0.0,47,0.00,CLR,,0.00,WeatherDisplay:10.37,2013-09-21 23:28:00,
2013-09-21 16:33:00,59.5,39.2,29.62,SW,220,1.1,0.0,47,0.00,CLR,,0.00,WeatherDisplay:10.37,2013-09-21 23:33:00,
2013-09-21 16:38:00,59.5,39.8,29.61,WNW,295,0.0,0.0,48,0.00,CLR,,0.00,WeatherDisplay:10.37,2013-09-21 23:38:00,
2013-09-21 16:43:00,59.3,38.5,29.62,West,272,1.1,0.0,46,0.00,CLR,,0.00,WeatherDisplay:10.37,2013-09-21 23:43:00,
2013-09-21 16:48:00,59.6,38.8,29.61,WNW,291,0.0,0.0,46,0.00,CLR,,0.00,WeatherDisplay:10.37,2013-09-21 23:48:00,
2013-09-21 16:53:00,59.8,39.0,29.61,WNW,287,0.0,0.0,46,0.00,CLR,,0.00,WeatherDisplay:10.37,2013-09-21 23:53:00,
2013-09-21 16:58:00,59.5,39.2,29.61,WNW,294,0.0,0.0,47,0.00,CLR,,0.00,WeatherDisplay:10.37,2013-09-21 23:58:00,
2013-09-21 17:03:00,59.3,40.1,29.62,North,349,0.0,0.0,49,0.00,CLR,,0.00,WeatherDisplay:10.37,2013-09-22 00:03:00,
2013-09-21 17:08:00,58.9,40.3,29.61,ENE,66,0.0,0.0,50,0.00,CLR,,0.00,WeatherDisplay:10.37,2013-09-22 00:08:00,
2013-09-21 17:13:00,58.3,40.2,29.61,ENE,58,0.0,0.0,51,0.00,CLR,,0.00,WeatherDisplay:10.37,2013-09-22 00:13:00,
2013-09-21 17:18:00,58.1,40.6,29.62,North,1,0.0,0.0,52,0.00,CLR,,0.00,WeatherDisplay:10.37,2013-09-22 00:18:00,
2013-09-21 17:23:00,57.8,40.8,29.62,ENE,76,0.0,0.0,53,0.00,CLR,,0.00,WeatherDisplay:10.37,2013-09-22 00:23:00,
2013-09-21 17:28:00,57.5,40.5,29.63,NE,48,0.0,0.0,53,0.00,CLR,,0.00,WeatherDisplay:10.37,2013-09-22 00:28:00,
2013-09-21 17:33:00,57.0,41.0,29.62,NE,47,0.0,0.0,55,0.00,CLR,,0.00,WeatherDisplay:10.37,2013-09-22 00:33:00,
2013-09-21 17:38:00,57.0,41.4,29.62,NE,47,0.0,0.0,56,0.00,CLR,,0.00,WeatherDisplay:10.37,2013-09-22 00:38:00,
2013-09-21 17:43:00,56.7,41.2,29.62,North,0,0.0,0.0,56,0.00,CLR,,0.00,WeatherDisplay:10.37,2013-09-22 00:43:00,
2013-09-21 17:48:00,56.6,41.1,29.62,NW,311,0.0,0.0,56,0.00,CLR,,0.00,WeatherDisplay:10.37,2013-09-22 00:48:00,
2013-09-21 17:53:00,56.5,40.5,29.63,North,3,0.0,0.0,55,0.00,CLR,,0.00,WeatherDisplay:10.37,2013-09-22 00:53:00,
2013-09-21 17:58:00,56.3,40.3,29.64,North,7,0.0,0.0,55,0.00,CLR,,0.00,WeatherDisplay:10.37,2013-09-22 00:58:00,
2013-09-21 18:03:00,56.3,40.8,29.64,NNE,28,0.0,0.0,56,0.00,CLR,,0.00,WeatherDisplay:10.37,2013-09-22 01:03:00,
2013-09-21 18:08:00,56.3,40.3,29.65,NNE,27,0.0,0.0,55,0.00,CLR,,0.00,WeatherDisplay:10.37,2013-09-22 01:08:00,
2013-09-21 18:13:00,56.3,39.9,29.65,NW,308,0.0,0.0,54,0.00,CLR,,0.00,WeatherDisplay:10.37,2013-09-22 01:13:00,
2013-09-21 18:18:00,56.2,39.8,29.65,NW,305,0.0,0.0,54,0.00,CLR,,0.00,WeatherDisplay:10.37,2013-09-22 01:18:00,
2013-09-21 18:23:00,56.0,39.1,29.65,North,4,0.0,0.0,53,0.00,CLR,,0.00,WeatherDisplay:10.37,2013-09-22 01:23:00,
2013-09-21 18:28:00,55.9,39.5,29.66,NW,313,0.0,0.0,54,0.00,CLR,,0.00,WeatherDisplay:10.37,2013-09-22 01:28:00,
2013-09-21 18:33:00,55.7,39.8,29.66,North,0,0.0,0.0,55,0.00,CLR,,0.00,WeatherDisplay:10.37,2013-09-22 01:33:00,
2013-09-21 18:38:00,55.6,39.7,29.66,North,0,0.0,0.0,55,0.00,CLR,,0.00,WeatherDisplay:10.37,2013-09-22 01:38:00,
2013-09-21 18:43:00,55.4,39.5,29.66,North,0,0.0,0.0,55,0.00,CLR,,0.00,WeatherDisplay:10.37,2013-09-22 01:43:00,
2013-09-21 18:48:00,55.4,39.5,29.66,North,0,0.0,0.0,55,0.00,CLR,,0.00,WeatherDisplay:10.37,2013-09-22 01:48:00,
2013-09-21 18:53:00,55.4,40.0,29.66,North,0,0.0,0.0,56,0.00,CLR,,0.00,WeatherDisplay:10.37,2013-09-22 01:53:00,
2013-09-21 18:58:00,55.3,39.9,29.66,North,0,0.0,0.0,56,0.00,CLR,,0.00,WeatherDisplay:10.37,2013-09-22 01:58:00,
2013-09-21 19:03:00,55.0,40.0,29.66,NNE,32,0.0,0.0,57,0.00,CLR,,0.00,WeatherDisplay:10.37,2013-09-22 02:03:00,
2013-09-21 19:08:00,54.8,39.8,29.66,NNE,32,0.0,0.0,57,0.00,CLR,,0.00,WeatherDisplay:10.37,2013-09-22 02:08:00,
2013-09-21 19:13:00,54.7,40.2,29.67,NNE,32,0.0,0.0,58,0.00,CLR,,0.00,WeatherDisplay:10.37,2013-09-22 02:13:00,
2013-09-21 19:18:00,54.5,40.5,29.67,NNE,32,0.0,0.0,59,0.00,CLR,,0.00,WeatherDisplay:10.37,2013-09-22 02:18:00,
2013-09-21 19:23:00,54.2,41.5,29.67,NNE,32,0.0,0.0,62,0.01,RA,,0.02,WeatherDisplay:10.37,2013-09-22 02:23:00,
2013-09-21 19:28:00,53.5,44.0,29.67,NNE,32,0.0,0.0,70,0.03,RA,,0.03,WeatherDisplay:10.37,2013-09-22 02:28:00,
2013-09-21 19:33:00,52.6,44.9,29.68,NNE,32,0.0,0.0,75,0.05,RA,,0.05,WeatherDisplay:10.37,2013-09-22 02:33:00,
2013-09-21 19:38:00,51.7,44.7,29.68,NNE,32,0.0,0.0,77,0.07,RA,,0.07,WeatherDisplay:10.37,2013-09-22 02:38:00,
2013-09-21 19:43:00,51.1,45.1,29.69,NNE,32,0.0,0.0,80,0.09,RA,,0.09,WeatherDisplay:10.37,2013-09-22 02:43:00,
2013-09-21 19:48:00,50.7,45.1,29.69,NE,34,0.0,0.0,81,0.10,RA,,0.10,WeatherDisplay:10.37,2013-09-22 02:48:00,
2013-09-21 19:53:00,50.4,45.1,29.69,NNE,32,0.0,0.0,82,0.11,RA,,0.11,WeatherDisplay:10.37,2013-09-22 02:53:00,
2013-09-21 19:58:00,50.2,45.2,29.69,NNE,32,0.0,0.0,83,0.11,RA,,0.11,WeatherDisplay:10.37,2013-09-22 02:58:00,
2013-09-21 20:03:00,50.1,45.5,29.68,NNE,32,0.0,0.0,84,0.12,RA,,0.12,WeatherDisplay:10.37,2013-09-22 03:03:00,
2013-09-21 20:08:00,49.9,45.3,29.69,NNE,32,0.0,0.0,84,0.12,RA,,0.12,WeatherDisplay:10.37,2013-09-22 03:08:00,
2013-09-21 20:13:00,49.8,45.5,29.69,NNE,32,0.0,0.0,85,0.12,CLR,,0.12,WeatherDisplay:10.37,2013-09-22 03:13:00,
2013-09-21 20:18:00,49.8,45.5,29.69,NNE,32,0.0,0.0,85,0.12,CLR,,0.12,WeatherDisplay:10.37,2013-09-22 03:18:00,
2013-09-21 20:23:00,49.6,45.3,29.69,NE,34,0.0,0.0,85,0.11,CLR,,0.12,WeatherDisplay:10.37,2013-09-22 03:23:00,
2013-09-21 20:28:00,49.6,45.3,29.69,NNE,32,0.0,0.0,85,0.09,CLR,,0.12,WeatherDisplay:10.37,2013-09-22 03:28:00,
2013-09-21 20:33:00,49.8,45.8,29.69,NNE,32,0.0,0.0,86,0.07,CLR,,0.12,WeatherDisplay:10.37,2013-09-22 03:33:00,
2013-09-21 20:38:00,49.8,45.8,29.69,NNE,32,0.0,0.0,86,0.05,CLR,,0.12,WeatherDisplay:10.37,2013-09-22 03:38:00,
2013-09-21 20:43:00,49.8,45.8,29.69,NNE,32,0.0,0.0,86,0.03,CLR,,0.12,WeatherDisplay:10.37,2013-09-22 03:43:00,
2013-09-21 20:48:00,49.6,45.6,29.69,NE,34,0.0,0.0,86,0.02,CLR,,0.12,WeatherDisplay:10.37,2013-09-22 03:48:00,
2013-09-21 20:53:00,49.6,45.6,29.70,NE,34,0.0,0.0,86,0.01,CLR,,0.12,WeatherDisplay:10.37,2013-09-22 03:53:00,
2013-09-21 20:58:00,49.6,45.6,29.70,NE,34,0.0,0.0,86,0.01,CLR,,0.12,WeatherDisplay:10.37,2013-09-22 03:58:00,
2013-09-21 21:01:00,49.5,45.8,29.70,NNE,32,0.0,0.0,87,0.00,CLR,,0.12,WeatherDisplay:10.37,2013-09-22 04:01:00,
2013-09-21 21:02:00,49.5,45.5,29.67,NNE,32,0.0,0.0,86,0.00,CLR,,0.12,WeatherDisplay:10.37,2013-09-22 04:02:00,
2013-09-21 21:05:00,49.5,45.8,29.67,NNE,32,0.0,0.0,87,0.00,CLR,,0.12,WeatherDisplay:10.37,2013-09-22 04:05:00,
2013-09-21 21:08:00,49.4,45.7,29.67,NE,34,0.0,0.0,87,0.00,CLR,,0.12,WeatherDisplay:10.37,2013-09-22 04:08:00,
2013-09-21 21:12:00,49.2,45.2,29.67,NNE,32,0.0,0.0,86,0.00,CLR,,0.12,WeatherDisplay:10.37,2013-09-22 04:12:00,
2013-09-21 21:17:00,49.2,45.2,29.68,NNE,32,0.0,0.0,86,0.00,CLR,,0.12,WeatherDisplay:10.37,2013-09-22 04:17:00,
2013-09-21 21:22:00,49.1,45.4,29.68,NE,34,0.0,0.0,87,0.00,CLR,,0.12,WeatherDisplay:10.37,2013-09-22 04:22:00,
2013-09-21 21:27:00,48.9,45.2,29.68,NNE,32,0.0,0.0,87,0.00,CLR,,0.12,WeatherDisplay:10.37,2013-09-22 04:27:00,
2013-09-21 21:32:00,48.6,44.6,29.68,NE,34,0.0,0.0,86,0.00,CLR,,0.12,WeatherDisplay:10.37,2013-09-22 04:32:00,
2013-09-21 21:37:00,48.2,43.9,29.69,NE,34,0.0,0.0,85,0.00,CLR,,0.12,WeatherDisplay:10.37,2013-09-22 04:37:00,
2013-09-21 21:42:00,47.7,43.1,29.69,NE,34,0.0,0.0,84,0.00,CLR,,0.12,WeatherDisplay:10.37,2013-09-22 04:42:00,
2013-09-21 21:47:00,47.4,43.1,29.68,NE,34,0.0,0.0,85,0.00,CLR,,0.12,WeatherDisplay:10.37,2013-09-22 04:47:00,
2013-09-21 21:52:00,47.0,42.7,29.68,NE,34,0.0,0.0,85,0.00,CLR,,0.12,WeatherDisplay:10.37,2013-09-22 04:52:00,
2013-09-21 21:57:00,46.7,42.4,29.68,NE,34,0.0,0.0,85,0.00,CLR,,0.12,WeatherDisplay:10.37,2013-09-22 04:57:00,
2013-09-21 22:02:00,46.4,42.1,29.69,NE,34,0.0,0.0,85,0.00,CLR,,0.12,WeatherDisplay:10.37,2013-09-22 05:02:00,
2013-09-21 22:07:00,46.2,41.6,29.69,NE,34,0.0,0.0,84,0.00,CLR,,0.12,WeatherDisplay:10.37,2013-09-22 05:07:00,
2013-09-21 22:12:00,46.0,41.4,29.68,NE,34,0.0,0.0,84,0.00,CLR,,0.12,WeatherDisplay:10.37,2013-09-22 05:12:00,
2013-09-21 22:17:00,45.8,41.2,29.69,NE,34,0.0,0.0,84,0.00,CLR,,0.12,WeatherDisplay:10.37,2013-09-22 05:17:00,
2013-09-21 22:22:00,45.8,40.9,29.69,NE,34,0.0,0.0,83,0.00,CLR,,0.12,WeatherDisplay:10.37,2013-09-22 05:22:00,
2013-09-21 22:27:00,45.7,40.8,29.69,NE,34,0.0,0.0,83,0.00,CLR,,0.12,WeatherDisplay:10.37,2013-09-22 05:27:00,
2013-09-21 22:32:00,45.4,40.5,29.69,NE,34,0.0,0.0,83,0.00,CLR,,0.12,WeatherDisplay:10.37,2013-09-22 05:32:00,
2013-09-21 22:37:00,45.1,40.6,29.69,NE,34,0.0,0.0,84,0.00,CLR,,0.12,WeatherDisplay:10.37,2013-09-22 05:37:00,
2013-09-21 22:42:00,44.9,40.4,29.69,NE,34,0.0,0.0,84,0.00,CLR,,0.12,WeatherDisplay:10.37,2013-09-22 05:42:00,
2013-09-21 22:47:00,44.6,40.1,29.69,NE,34,0.0,0.0,84,0.00,CLR,,0.12,WeatherDisplay:10.37,2013-09-22 05:47:00,
2013-09-21 22:52:00,44.2,39.7,29.70,NE,34,0.0,0.0,84,0.00,CLR,,0.12,WeatherDisplay:10.37,2013-09-22 05:52:00,
2013-09-21 22:57:00,43.9,39.7,29.70,NE,34,0.0,0.0,85,0.00,CLR,,0.12,WeatherDisplay:10.37,2013-09-22 05:57:00,
2013-09-21 23:02:00,43.9,39.7,29.68,NE,34,0.0,0.0,85,0.00,CLR,,0.12,WeatherDisplay:10.37,2013-09-22 06:02:00,
2013-09-21 23:07:00,43.9,39.4,29.68,NE,34,0.0,0.0,84,0.00,CLR,,0.12,WeatherDisplay:10.37,2013-09-22 06:07:00,
2013-09-21 23:12:00,43.9,39.4,29.68,NE,38,0.0,0.0,84,0.00,CLR,,0.12,WeatherDisplay:10.37,2013-09-22 06:12:00,
2013-09-21 23:17:00,43.8,39.6,29.68,NE,38,0.0,0.0,85,0.00,CLR,,0.12,WeatherDisplay:10.37,2013-09-22 06:17:00,
2013-09-21 23:22:00,43.9,39.4,29.68,NE,38,0.0,0.0,84,0.00,CLR,,0.12,WeatherDisplay:10.37,2013-09-22 06:22:00,
2013-09-21 23:27:00,44.2,39.7,29.68,NE,48,0.0,0.0,84,0.00,CLR,,0.12,WeatherDisplay:10.37,2013-09-22 06:27:00,
2013-09-21 23:32:00,44.3,39.5,29.69,ENE,59,0.0,0.0,83,0.00,CLR,,0.12,WeatherDisplay:10.37,2013-09-22 06:32:00,
2013-09-21 23:37:00,44.5,39.7,29.69,ESE,114,0.0,0.0,83,0.00,CLR,,0.12,WeatherDisplay:10.37,2013-09-22 06:37:00,
2013-09-21 23:42:00,44.6,39.4,29.69,ESE,114,0.0,0.0,82,0.00,CLR,,0.12,WeatherDisplay:10.37,2013-09-22 06:42:00,
2013-09-21 23:47:00,44.6,39.4,29.69,ESE,114,0.0,0.0,82,0.00,CLR,,0.12,WeatherDisplay:10.37,2013-09-22 06:47:00,
2013-09-21 23:52:00,44.6,39.4,29.69,ESE,114,0.0,0.0,82,0.00,CLR,,0.12,WeatherDisplay:10.37,2013-09-22 06:52:00,
2013-09-21 23:57:00,44.5,39.0,29.69,ESE,114,0.0,0.0,81,0.00,CLR,,0.12,WeatherDisplay:10.37,2013-09-22 06:57:00,